Location: Rosenheim
(47.8408°N, 12.2113°E)
Time: 10:20:56
(UTC+01:00)

OTV 5 (USA 277) - Visible Passes

Search period start: 25 November 2017 00:00
Search period end: 05 December 2017 00:00
Orbit: 404 x 417 km, 43.0° (Epoch: 07 September)

Date Brightness Start Highest point End Pass type
(mag) Time Alt. Az. Time Alt. Az. Time Alt. Az.
03 Dec ? 18:28:05 10° SSW 18:29:39 16° S 18:29:39 16° S visible
04 Dec ? 17:37:50 10° S 17:39:30 13° SSE 17:41:01 10° SE visible
04 Dec ? 19:13:11 10° SW 19:13:47 14° SW 19:13:47 14° SW visible
